Location: Klein M�hlingen
(51.9472°N, 11.7453°E)
Time: 23:46:35
(UTC+00:00)

Cosmos-2242 - Pass Details

Date: 09 April 2020
Orbit: 590 x 618 km, 82.5° (Epoch: 04 June)

Event Time Altitude Azimuth Distance (km) Brightness Sun altitude
Exits shadow 20:08:40 37° 108° (ESE) 951 3.5 -18.1°
Maximum altitude 20:09:09 38° 92° (E) 929 3.6 -18.2°
Drops below altitude 10° 20:13:13 10° 24° (NNE) 1,981 5.9 -18.7°
Sets 20:15:33 0° 17° (NNE) 2,895 6.8 -18.9°
